Weather History for Vagar, Faroe Islands

Change the Weather History Date:

Monday, February 18, 2013

  Actual Average Record
Temperature  
Mean Temperature 44 °F -  
Max Temperature 46 °F 39 °F 46 °F (1998)
Min Temperature 41 °F 34 °F 24 °F (2012)
Degree Days  
Heating Degree Days 22    
Moisture  
Dew Point 43 °F    
Average Humidity 94    
Maximum Humidity 100    
Minimum Humidity 87    
Precipitation  
Precipitation 0.00 in - - ()
Sea Level Pressure  
Sea Level Pressure 30.04 in    
Wind  
Wind Speed 6 mph ()    
Max Wind Speed 14 mph    
Max Gust Speed -    
Visibility 5.0 miles    
Events Rain    
Averages and records for this station are not official NWS values.
T = Trace of Precipitation, MM = Missing Value Source: Averaged Metar Reports

Daily Weather History Graph

Daily Weather History Graph

Search for Another Location

Airport:

Trip Planner

Search our weather history database for the weather conditions in past years. The results will help you decide how hot, cold, wet, or windy it might be!

Date:

Astronomy

Feb. 18, 2013 Rise Set
Actual Time 8:05 AM WET 5:21 PM WET
Civil Twilight 7:19 AM WET 6:08 PM WET
Nautical Twilight 6:27 AM WET 6:59 PM WET
Astronomical Twilight 5:36 AM WET 7:51 PM WET
Moon 10:00 AM WET (2/18) 3:28 AM WET (2/18)
Length of Visible Light 10h 48m
Length of Day
9h 15m
First Quarter, 56% of the Moon is Illuminated
Feb 18
First Quarter
Feb 25
Full
Mar 4
Last Quarter
Mar 11
New
Mar 19
First Quarter

Hourly Weather History & Observations

Time (WET) Temp. Windchill Dew Point Humidity Pressure Visibility Wind Dir Wind Speed Gust Speed Precip Events Conditions
12:20 AM 44.6 °F 41.4 °F 44.6 °F 100% 29.95 in - SSW 5.8 mph - N/A Rain Light Rain Showers
12:50 AM 44.6 °F 40.7 °F 44.6 °F 100% 29.95 in 1.7 mi SW 6.9 mph - N/A Rain Light Rain Showers
1:20 AM 46.4 °F 41.9 °F 44.6 °F 93% 29.95 in 3.7 mi SW 9.2 mph - N/A Rain Light Rain Showers
1:50 AM 46.4 °F 42.9 °F 44.6 °F 93% 29.95 in - SW 6.9 mph - N/A Rain Light Rain Showers
2:20 AM 46.4 °F 43.5 °F 44.6 °F 93% 29.95 in 1.8 mi WSW 5.8 mph - N/A   Overcast
2:50 AM 46.4 °F 41.9 °F 44.6 °F 93% 29.95 in 3.7 mi WSW 9.2 mph - N/A   Overcast
3:20 AM 46.4 °F 42.9 °F 44.6 °F 93% 29.98 in 3.1 mi SW 6.9 mph - N/A Rain Light Rain Showers
3:50 AM 44.6 °F 40.2 °F 44.6 °F 100% 29.98 in - SW 8.1 mph - N/A Rain Light Rain Showers
4:20 AM 44.6 °F 40.2 °F 44.6 °F 100% 29.98 in 3.7 mi WSW 8.1 mph - N/A   Overcast
4:50 AM 46.4 °F 40.7 °F 44.6 °F 93% 29.98 in 4.3 mi WSW 12.7 mph - N/A   Overcast
5:20 AM 46.4 °F 40.7 °F 44.6 °F 93% 29.98 in 4.3 mi WSW 12.7 mph - N/A   Mostly Cloudy
5:50 AM 46.4 °F 41.1 °F 44.6 °F 93% 29.98 in 3.7 mi WSW 11.5 mph - N/A   Mostly Cloudy
6:20 AM 46.4 °F 41.1 °F 44.6 °F 93% 29.98 in 5.0 mi WSW 11.5 mph - N/A   Overcast
6:50 AM 46.4 °F 41.1 °F 44.6 °F 93% 30.01 in 5.0 mi SW 11.5 mph - N/A   Overcast
7:20 AM 46.4 °F 41.5 °F 44.6 °F 93% 30.01 in 5.0 mi SW 10.4 mph - N/A   Overcast
7:50 AM 46.4 °F 41.5 °F 44.6 °F 93% 30.01 in 4.3 mi SW 10.4 mph - N/A   Overcast
8:20 AM 44.6 °F 39.2 °F 44.6 °F 100% 30.01 in - SW 10.4 mph - N/A   Overcast
8:50 AM 46.4 °F 41.5 °F 44.6 °F 93% 30.04 in 3.7 mi SW 10.4 mph - N/A   Overcast
9:20 AM 46.4 °F 41.1 °F 44.6 °F 93% 30.04 in 3.1 mi SW 11.5 mph - N/A   Overcast
9:50 AM 46.4 °F 40.7 °F 44.6 °F 93% 30.04 in 3.1 mi SW 12.7 mph - N/A   Overcast
10:20 AM 46.4 °F 40.7 °F 44.6 °F 93% 30.04 in 3.7 mi SW 12.7 mph - N/A   Overcast
10:50 AM 44.6 °F 38.1 °F 44.6 °F 100% 30.04 in 4.3 mi SW 13.8 mph - N/A   Overcast
11:20 AM 44.6 °F 38.4 °F 44.6 °F 100% 30.04 in 5.0 mi SW 12.7 mph - N/A   Overcast
11:50 AM 44.6 °F 43.1 °F 44.6 °F 100% 30.06 in 6.2 mi WNW 3.5 mph - N/A   Mostly Cloudy
12:20 PM 44.6 °F - 44.6 °F 100% 30.06 in 5.6 mi Variable 1.2 mph - N/A   Overcast
12:50 PM 44.6 °F - 44.6 °F 100% 30.06 in 3.7 mi Variable 1.2 mph - N/A   Overcast
1:20 PM 44.6 °F - 44.6 °F 100% 30.06 in 3.1 mi SSE 2.3 mph - N/A   Overcast
1:50 PM 44.6 °F - 44.6 °F 100% 30.06 in 6.2 mi SSE 1.2 mph - N/A   Overcast
2:20 PM 44.6 °F - 44.6 °F 100% 30.06 in 6.2 mi SE 2.3 mph - N/A   Overcast
2:50 PM 44.6 °F - 44.6 °F 100% 30.06 in 6.2 mi SSE 2.3 mph - N/A   Overcast
3:20 PM 46.4 °F 45.2 °F 42.8 °F 87% 30.06 in 6.2 mi SE 3.5 mph - N/A   Overcast
3:50 PM 44.6 °F 43.1 °F 42.8 °F 93% 30.06 in 6.2 mi SSE 3.5 mph - N/A   Overcast
4:20 PM 44.6 °F - 42.8 °F 93% 30.06 in 6.2 mi South 2.3 mph - N/A   Overcast
4:50 PM 44.6 °F 43.1 °F 41.0 °F 87% 30.06 in 6.2 mi South 3.5 mph - N/A   Overcast
5:20 PM 44.6 °F 42.2 °F 41.0 °F 87% 30.09 in 6.2 mi South 4.6 mph - N/A   Overcast
5:50 PM 42.8 °F 41.1 °F 41.0 °F 93% 30.09 in 6.2 mi SW 3.5 mph - N/A   Overcast
6:20 PM 42.8 °F 39.3 °F 41.0 °F 93% 30.09 in 6.2 mi SSW 5.8 mph - N/A   Overcast
6:50 PM 42.8 °F - 39.2 °F 87% 30.09 in 6.2 mi SE 1.2 mph - N/A   Overcast
7:20 PM 42.8 °F - 39.2 °F 87% 30.09 in 6.2 mi South 1.2 mph - N/A   Overcast
7:50 PM 42.8 °F - 41.0 °F 93% 30.09 in 6.2 mi Calm Calm - N/A   Overcast
8:20 PM 42.8 °F - 41.0 °F 93% 30.09 in 6.2 mi SSE 2.3 mph - N/A   Overcast
8:50 PM 42.8 °F 40.1 °F 39.2 °F 87% 30.09 in 6.2 mi SE 4.6 mph - N/A   Overcast
9:20 PM 42.8 °F - 39.2 °F 87% 30.12 in 6.2 mi SSE 2.3 mph - N/A   Overcast
9:50 PM 42.8 °F - 39.2 °F 87% 30.12 in 6.2 mi Calm Calm - N/A   Overcast
10:20 PM 42.8 °F - 39.2 °F 87% 30.12 in 6.2 mi ESE 2.3 mph - N/A   Overcast
10:50 PM 41.0 °F - 39.2 °F 93% 30.12 in 6.2 mi Calm Calm - N/A   Overcast
11:20 PM 41.0 °F 39.0 °F 39.2 °F 93% 30.12 in 6.2 mi SSE 3.5 mph - N/A   Overcast
11:50 PM 42.8 °F - 39.2 °F 87% 30.12 in 6.2 mi SE 1.2 mph - N/A   Overcast